| time (UTC) | temp F | wind direction | speed MPH | gust MPH | rain 1hr in | rain 24hr in | rain mn in | humidity % | barometer mb |
| 20260508025018 | 50 | 6 | 1.0 | 3.0 | 0.00 | 0.01 | 0.01 | 50 | 1007.7 |
| 20260508024018 | 51 | 344 | 1.0 | 4.0 | 0.00 | 0.01 | 0.01 | 49 | 1007.6 |
| 20260508023059 | 50 | 337 | 2.0 | 6.0 | 0.00 | 0.01 | 0.01 | 48 | 1007.6 |
| 20260508022019 | 50 | 345 | 1.0 | 4.0 | 0.00 | 0.01 | 0.01 | 51 | 1007.4 |
| 20260508021019 | 51 | 331 | 1.0 | 4.0 | 0.00 | 0.01 | 0.01 | 50 | 1007.2 |
| 20260508020016 | 51 | 318 | 2.0 | 4.0 | 0.00 | 0.01 | 0.01 | 49 | 1007.1 |
| 20260508015019 | 52 | 317 | 1.0 | 3.0 | 0.00 | 0.01 | 0.01 | 49 | 1006.9 |
| 20260508014019 | 51 | 285 | 1.0 | 4.0 | 0.00 | 0.01 | 0.01 | 47 | 1006.7 |
| 20260508013039 | 51 | 279 | 1.0 | 3.0 | 0.00 | 0.01 | 0.01 | 51 | 1006.6 |
| 20260508012019 | 50 | 260 | 1.0 | 3.0 | 0.00 | 0.01 | 0.01 | 54 | 1006.5 |
| 20260508011017 | 50 | 257 | 1.0 | 3.0 | 0.00 | 0.01 | 0.01 | 55 | 1006.4 |
| 20260508010017 | 51 | 285 | 0.0 | 2.0 | 0.00 | 0.01 | 0.01 | 50 | 1006.4 |
| 20260508005016 | 52 | 252 | 0.0 | 3.0 | 0.00 | 0.01 | 0.01 | 46 | 1006.3 |
| 20260508004020 | 52 | 220 | 1.0 | 3.0 | 0.00 | 0.01 | 0.01 | 47 | 1006.1 |
| 20260508003018 | 53 | 233 | 1.0 | 2.0 | 0.00 | 0.01 | 0.01 | 51 | 1006.0 |
| 20260508002018 | 54 | 240 | 1.0 | 2.0 | 0.00 | 0.01 | 0.01 | 46 | 1005.9 |
| 20260508001017 | 55 | 265 | 1.0 | 4.0 | 0.00 | 0.02 | 0.01 | 42 | 1005.8 |
| 20260508000018 | 56 | 269 | 1.0 | 4.0 | 0.00 | 0.02 | 0.01 | 40 | 1005.7 |
| 20260507235018 | 57 | 274 | 2.0 | 5.0 | 0.00 | 0.03 | 0.01 | 38 | 1005.6 |
| 20260507234018 | 58 | 279 | 3.0 | 7.0 | 0.00 | 0.03 | 0.01 | 36 | 1005.6 |
| 20260507233018 | 59 | 291 | 3.0 | 8.0 | 0.00 | 0.03 | 0.01 | 35 | 1005.5 |
| 20260507232018 | 60 | 280 | 3.0 | 6.0 | 0.00 | 0.03 | 0.01 | 35 | 1005.5 |
| 20260507231019 | 60 | 276 | 4.0 | 9.0 | 0.00 | 0.03 | 0.01 | 34 | 1005.4 |
| 20260507230039 | 60 | 280 | 5.0 | 9.0 | 0.00 | 0.03 | 0.01 | 34 | 1005.4 |
| 20260507225019 | 61 | 294 | 4.0 | 10.0 | 0.00 | 0.03 | 0.01 | 33 | 1005.3 |
| 20260507224016 | 61 | 285 | 5.0 | 9.0 | 0.00 | 0.03 | 0.01 | 33 | 1005.1 |
| 20260507223016 | 62 | 287 | 5.0 | 12.0 | 0.00 | 0.04 | 0.01 | 33 | 1005.0 |
| 20260507222020 | 62 | 288 | 5.0 | 11.0 | 0.00 | 0.06 | 0.01 | 34 | 1005.0 |
| 20260507221040 | 62 | 280 | 6.0 | 11.0 | 0.00 | 0.06 | 0.01 | 34 | 1004.9 |
| 20260507220020 | 61 | 280 | 6.0 | 10.0 | 0.00 | 0.07 | 0.01 | 35 | 1004.8 |
| 20260507215017 | 61 | 280 | 5.0 | 9.0 | 0.00 | 0.08 | 0.01 | 35 | 1004.9 |
| 20260507214017 | 62 | 272 | 7.0 | 13.0 | 0.00 | 0.08 | 0.01 | 35 | 1004.9 |
| 20260507213017 | 62 | 303 | 5.0 | 12.0 | 0.00 | 0.09 | 0.01 | 35 | 1004.9 |
| 20260507212016 | 61 | 276 | 5.0 | 10.0 | 0.00 | 0.10 | 0.01 | 37 | 1004.9 |
| 20260507211016 | 62 | 292 | 6.0 | 13.0 | 0.00 | 0.10 | 0.01 | 36 | 1004.9 |
| 20260507210018 | 62 | 291 | 5.0 | 11.0 | 0.00 | 0.12 | 0.01 | 36 | 1004.9 |
| 20260507205018 | 61 | 305 | 5.0 | 10.0 | 0.00 | 0.14 | 0.01 | 37 | 1004.7 |
| 20260507204017 | 62 | 320 | 4.0 | 8.0 | 0.00 | 0.16 | 0.01 | 37 | 1004.7 |
| 20260507203017 | 62 | 286 | 6.0 | 16.0 | 0.00 | 0.18 | 0.01 | 37 | 1004.7 |
| 20260507202018 | 63 | 278 | 6.0 | 12.0 | 0.00 | 0.20 | 0.01 | 35 | 1004.7 |
| 20260507201018 | 62 | 284 | 5.0 | 9.0 | 0.00 | 0.23 | 0.01 | 35 | 1004.7 |
| 20260507200015 | 62 | 282 | 7.0 | 12.0 | 0.00 | 0.24 | 0.01 | 36 | 1004.8 |
| 20260507195018 | 62 | 268 | 8.0 | 13.0 | 0.00 | 0.24 | 0.01 | 37 | 1004.8 |
| 20260507194018 | 62 | 265 | 7.0 | 15.0 | 0.00 | 0.25 | 0.01 | 37 | 1004.9 |
| 20260507193018 | 62 | 286 | 7.0 | 13.0 | 0.00 | 0.26 | 0.01 | 36 | 1004.9 |
| 20260507192038 | 62 | 283 | 6.0 | 12.0 | 0.00 | 0.27 | 0.01 | 36 | 1005.1 |
| 20260507191017 | 62 | 273 | 7.0 | 13.0 | 0.00 | 0.28 | 0.01 | 36 | 1005.1 |
| 20260507190017 | 62 | 265 | 7.0 | 12.0 | 0.00 | 0.28 | 0.01 | 37 | 1005.0 |
| 20260507185017 | 62 | 259 | 6.0 | 12.0 | 0.00 | 0.29 | 0.01 | 37 | 1005.1 |
| 20260507184019 | 62 | 281 | 6.0 | 13.0 | 0.00 | 0.29 | 0.01 | 40 | 1005.2 |
| 20260507183019 | 61 | 273 | 6.0 | 11.0 | 0.00 | 0.30 | 0.01 | 43 | 1005.3 |
| 20260507182017 | 61 | 289 | 6.0 | 12.0 | 0.00 | 0.30 | 0.01 | 44 | 1005.3 |
| 20260507181018 | 61 | 266 | 7.0 | 12.0 | 0.00 | 0.30 | 0.01 | 48 | 1005.4 |
| 20260507180018 | 60 | 281 | 6.0 | 12.0 | 0.00 | 0.30 | 0.01 | 52 | 1005.5 |
| 20260507175018 | 59 | 294 | 6.0 | 11.0 | 0.00 | 0.30 | 0.01 | 55 | 1005.5 |
| 20260507174018 | 60 | 282 | 7.0 | 13.0 | 0.00 | 0.30 | 0.01 | 53 | 1005.4 |
| 20260507173019 | 61 | 255 | 7.0 | 13.0 | 0.00 | 0.30 | 0.01 | 50 | 1005.5 |
| 20260507172019 | 60 | 264 | 7.0 | 14.0 | 0.00 | 0.30 | 0.01 | 51 | 1005.6 |
| 20260507171019 | 60 | 282 | 7.0 | 15.0 | 0.00 | 0.30 | 0.01 | 51 | 1005.8 |
| 20260507170019 | 59 | 266 | 6.0 | 13.0 | 0.00 | 0.30 | 0.01 | 53 | 1005.8 |
| 20260507165059 | 59 | 283 | 5.0 | 11.0 | 0.00 | 0.30 | 0.01 | 55 | 1005.9 |
| 20260507164039 | 59 | 281 | 6.0 | 12.0 | 0.00 | 0.30 | 0.01 | 54 | 1006.0 |
| 20260507163016 | 59 | 255 | 7.0 | 11.0 | 0.00 | 0.30 | 0.01 | 55 | 1006.0 |
| 20260507162016 | 59 | 258 | 7.0 | 10.0 | 0.00 | 0.30 | 0.01 | 53 | 1006.0 |
| 20260507161040 | 57 | 286 | 4.0 | 10.0 | 0.00 | 0.30 | 0.01 | 58 | 1006.1 |
| 20260507160040 | 54 | 268 | 3.0 | 7.0 | 0.00 | 0.30 | 0.01 | 69 | 1006.3 |
| 20260507155037 | 54 | 215 | 2.0 | 6.0 | 0.00 | 0.30 | 0.01 | 70 | 1006.4 |
| 20260507154017 | 55 | 212 | 3.0 | 8.0 | 0.00 | 0.30 | 0.01 | 68 | 1006.5 |
| 20260507153017 | 54 | 215 | 3.0 | 6.0 | 0.00 | 0.30 | 0.01 | 70 | 1006.6 |
| 20260507152017 | 54 | 218 | 3.0 | 8.0 | 0.00 | 0.30 | 0.01 | 74 | 1006.7 |
| 20260507151018 | 55 | 208 | 2.0 | 6.0 | 0.00 | 0.30 | 0.01 | 72 | 1006.8 |
| 20260507150020 | 55 | 206 | 3.0 | 8.0 | 0.00 | 0.30 | 0.01 | 71 | 1006.7 |
| 20260507145018 | 54 | 214 | 3.0 | 7.0 | 0.00 | 0.30 | 0.01 | 71 | 1006.7 |
| 20260507144018 | 54 | 205 | 3.0 | 8.0 | 0.00 | 0.30 | 0.01 | 74 | 1006.7 |
| 20260507143018 | 54 | 212 | 3.0 | 6.0 | 0.00 | 0.30 | 0.01 | 72 | 1006.7 |
| 20260507142019 | 53 | 218 | 3.0 | 7.0 | 0.00 | 0.30 | 0.01 | 76 | 1006.8 |
| 20260507141018 | 53 | 217 | 2.0 | 7.0 | 0.00 | 0.30 | 0.01 | 78 | 1006.9 |
| 20260507140019 | 53 | 215 | 3.0 | 7.0 | 0.00 | 0.30 | 0.01 | 78 | 1007.0 |
| 20260507135016 | 53 | 204 | 2.0 | 7.0 | 0.00 | 0.30 | 0.01 | 79 | 1007.1 |
| 20260507134019 | 54 | 223 | 2.0 | 6.0 | 0.00 | 0.30 | 0.01 | 76 | 1007.2 |
| 20260507133019 | 55 | 255 | 3.0 | 7.0 | 0.00 | 0.30 | 0.01 | 70 | 1007.2 |
| 20260507132019 | 54 | 327 | 3.0 | 6.0 | 0.00 | 0.30 | 0.01 | 68 | 1007.3 |
| 20260507131019 | 54 | 299 | 4.0 | 8.0 | 0.00 | 0.30 | 0.01 | 69 | 1007.4 |
| 20260507130016 | 54 | 295 | 4.0 | 10.0 | 0.00 | 0.30 | 0.01 | 70 | 1007.4 |
| 20260507125020 | 53 | 290 | 4.0 | 9.0 | 0.00 | 0.30 | 0.01 | 69 | 1007.3 |
| 20260507124020 | 53 | 308 | 4.0 | 9.0 | 0.00 | 0.30 | 0.01 | 70 | 1007.4 |
| 20260507123020 | 52 | 312 | 3.0 | 6.0 | 0.00 | 0.30 | 0.01 | 74 | 1007.3 |
| 20260507122040 | 51 | 283 | 3.0 | 6.0 | 0.00 | 0.30 | 0.01 | 80 | 1007.3 |
| 20260507121018 | 50 | 300 | 2.0 | 6.0 | 0.00 | 0.30 | 0.01 | 84 | 1007.2 |
| 20260507120018 | 50 | 289 | 3.0 | 7.0 | 0.00 | 0.30 | 0.01 | 89 | 1007.2 |
| 20260507115017 | 49 | 272 | 1.0 | 4.0 | 0.00 | 0.30 | 0.01 | 91 | 1007.2 |
| 20260507114018 | 49 | 287 | 2.0 | 5.0 | 0.00 | 0.30 | 0.01 | 92 | 1007.4 |
| 20260507113023 | 49 | 331 | 1.0 | 3.0 | 0.00 | 0.30 | 0.01 | 93 | 1007.1 |
| 20260507112041 | 48 | 322 | 1.0 | 4.0 | 0.00 | 0.30 | 0.01 | 93 | 1007.1 |
| 20260507111019 | 48 | 323 | 1.0 | 4.0 | 0.00 | 0.30 | 0.01 | 94 | 1007.1 |
| 20260507110019 | 48 | 317 | 2.0 | 4.0 | 0.00 | 0.30 | 0.01 | 94 | 1007.2 |
| 20260507105059 | 48 | 302 | 1.0 | 3.0 | 0.00 | 0.30 | 0.01 | 94 | 1007.3 |
| 20260507104019 | 48 | 322 | 1.0 | 4.0 | 0.00 | 0.30 | 0.01 | 94 | 1007.1 |
| 20260507103019 | 48 | 328 | 2.0 | 4.0 | 0.00 | 0.30 | 0.01 | 94 | 1007.2 |
| 20260507102019 | 48 | 311 | 2.0 | 4.0 | 0.00 | 0.30 | 0.01 | 95 | 1007.3 |
| 20260507101040 | 48 | 288 | 2.0 | 4.0 | 0.00 | 0.30 | 0.01 | 95 | 1007.3 |
| 20260507100020 | 48 | 304 | 2.0 | 5.0 | 0.00 | 0.30 | 0.01 | 96 | 1007.0 |
| 20260507095019 | 48 | 315 | 2.0 | 4.0 | 0.00 | 0.30 | 0.01 | 95 | 1007.0 |
| 20260507094023 | 48 | 288 | 2.0 | 4.0 | 0.01 | 0.30 | 0.01 | 95 | 1007.3 |
| 20260507093040 | 48 | 315 | 1.0 | 4.0 | 0.01 | 0.30 | 0.01 | 95 | 1006.7 |
| 20260507092017 | 48 | 289 | 2.0 | 4.0 | 0.01 | 0.30 | 0.01 | 94 | 1007.0 |
| 20260507091017 | 49 | 304 | 1.0 | 3.0 | 0.01 | 0.30 | 0.01 | 94 | 1006.7 |
| 20260507090100 | 49 | 316 | 1.0 | 3.0 | 0.01 | 0.30 | 0.01 | 93 | 1006.6 |
| 20260507085041 | 49 | 335 | 1.0 | 4.0 | 0.01 | 0.30 | 0.01 | 91 | 1006.5 |
| 20260507084059 | 49 | 348 | 2.0 | 5.0 | 0.01 | 0.29 | 0.01 | 90 | 1006.3 |
| 20260507083018 | 50 | 328 | 2.0 | 4.0 | 0.00 | 0.29 | 0.00 | 90 | 1006.6 |
| 20260507082018 | 50 | 314 | 2.0 | 6.0 | 0.00 | 0.29 | 0.00 | 90 | 1006.6 |
| 20260507081018 | 50 | 306 | 2.0 | 4.0 | 0.00 | 0.29 | 0.00 | 90 | 1006.3 |
| 20260507080018 | 50 | 321 | 1.0 | 3.0 | 0.00 | 0.29 | 0.00 | 91 | 1006.2 |
| 20260507075039 | 50 | 302 | 2.0 | 5.0 | 0.00 | 0.29 | 0.00 | 90 | 1006.0 |
| 20260507074019 | 50 | 312 | 2.0 | 5.0 | 0.00 | 0.29 | 0.00 | 90 | 1005.9 |
| 20260507073019 | 51 | 318 | 2.0 | 6.0 | 0.00 | 0.29 | 0.00 | 89 | 1006.0 |
| 20260507072039 | 51 | 296 | 3.0 | 6.0 | 0.00 | 0.29 | 0.00 | 89 | 1006.0 |
| 20260507071019 | 51 | 290 | 4.0 | 8.0 | 0.00 | 0.29 | 0.00 | 90 | 1005.8 |
| 20260507070019 | 51 | 291 | 3.0 | 8.0 | 0.00 | 0.29 | 0.00 | 94 | 1005.5 |
| 20260507065020 | 51 | 291 | 2.0 | 5.0 | 0.00 | 0.29 | 0.00 | 95 | 1005.5 |
| 20260507064017 | 51 | 288 | 3.0 | 6.0 | 0.00 | 0.29 | 0.00 | 95 | 1005.4 |
| 20260507063020 | 52 | 282 | 2.0 | 5.0 | 0.00 | 0.29 | 0.00 | 94 | 1005.6 |
| 20260507062020 | 52 | 277 | 2.0 | 3.0 | 0.00 | 0.29 | 0.00 | 92 | 1005.5 |
| 20260507061020 | 52 | 277 | 2.0 | 5.0 | 0.00 | 0.29 | 0.00 | 90 | 1005.5 |
| 20260507060020 | 52 | 285 | 4.0 | 8.0 | 0.00 | 0.29 | 0.00 | 90 | 1005.3 |
| 20260507055018 | 53 | 278 | 4.0 | 8.0 | 0.00 | 0.29 | 0.00 | 91 | 1005.4 |
| 20260507054018 | 53 | 285 | 4.0 | 7.0 | 0.00 | 0.29 | 0.00 | 91 | 1005.1 |
| 20260507053018 | 53 | 290 | 3.0 | 8.0 | 0.00 | 0.29 | 0.00 | 94 | 1005.0 |
| 20260507052019 | 54 | 264 | 3.0 | 6.0 | 0.00 | 0.29 | 0.00 | 94 | 1005.2 |
| 20260507051041 | 54 | 277 | 4.0 | 7.0 | 0.00 | 0.29 | 0.00 | 93 | 1005.2 |
| 20260507050018 | 54 | 272 | 3.0 | 5.0 | 0.00 | 0.29 | 0.00 | 93 | 1005.0 |
| 20260507045018 | 55 | 272 | 4.0 | 8.0 | 0.00 | 0.29 | 0.00 | 92 | 1005.0 |
| 20260507044019 | 55 | 266 | 5.0 | 11.0 | 0.00 | 0.29 | 0.00 | 94 | 1005.1 |
| 20260507043019 | 55 | 271 | 4.0 | 8.0 | 0.00 | 0.29 | 0.00 | 98 | 1005.1 |
| 20260507042019 | 55 | 280 | 3.0 | 7.0 | 0.00 | 0.29 | 0.00 | 99 | 1004.8 |
| 20260507041019 | 54 | 291 | 3.0 | 6.0 | 0.00 | 0.29 | 0.00 | 99 | 1004.7 |
| 20260507040039 | 52 | 299 | 2.0 | 5.0 | 0.00 | 0.29 | 0.00 | 99 | 1004.7 |
| 20260507035100 | 50 | 262 | 1.0 | 5.0 | 0.00 | 0.29 | 0.29 | 99 | 1004.8 |
| 20260507034020 | 49 | 249 | 3.0 | 5.0 | 0.00 | 0.29 | 0.29 | 99 | 1004.9 |
| 20260507033020 | 49 | 241 | 3.0 | 7.0 | 0.00 | 0.29 | 0.29 | 99 | 1004.7 |
| 20260507032020 | 49 | 239 | 3.0 | 6.0 | 0.00 | 0.29 | 0.29 | 99 | 1004.3 |
| 20260507031017 | 49 | 237 | 2.0 | 6.0 | 0.00 | 0.29 | 0.29 | 99 | 1004.3 |
| 20260507030018 | 49 | 228 | 2.0 | 7.0 | 0.00 | 0.29 | 0.29 | 99 | 1004.3 |